Flag for Chile Weather past 2 weeks in Temuco, Chile

Now
66 °F

Scattered clouds.


Feels Like: 66 °F
Forecast: N/A
Wind: 8 mph from Southwest

Location: Concepcion Airport

Current Time: Feb 28, 2015 at 6:14:40 PM

Latest Report: Feb 28, 2015 at 6:00 PM


Visibility: N/A

Pressure: 30.01 "Hg

Humidity: 68%

Dew point: 55 °F

Location of TemucoLocation

Historic Weather in Temuco — Graph

°F

Temuco temperature yesterday

Maximum temperature yesterday: 72 °F (at 2:00 PM)
Minimum temperature yesterday: 52 °F (at 7:00 AM)
Average temperature yesterday: 62 °F

Past Weeks' High & Low Weather Summary

 TemperatureHumidityPressure
High75 °F (Feb 16, 2:00 PM)100% (Feb 22, 8:00 AM)30.09 "Hg (Feb 22, 8:00 AM)
Low45 °F (Feb 19, 8:00 AM)35% (Feb 18, 1:00 PM)29.83 "Hg (Feb 25, 7:00 PM)
Average60 °F75%29.96 "Hg
* Reported Feb 13 5:00 PM — Feb 28 5:00 PM, Temuco, Weather by CustomWeather, © 2015

Note: Actual official high and low records may vary slightly from our data, if they occured in-between our weather recording intervals... More about our weather records

Advertising

Temuco weather history for previous 24 hours

 ConditionsComfort  
Time TempWeatherWind HumidityBarometerVisibility
5:00 PM
Sat, Feb 28
66 °FScattered clouds.8 mph68%30.01 "HgN/A
4:00 PM70 °FPartly sunny.7 mph64%30.01 "HgN/A
3:00 PM68 °FPartly sunny.8 mph64%30.04 "HgN/A
2:00 PM66 °FBroken clouds.5 mph73%30.04 "HgN/A
1:00 PM64 °FMore clouds than sun.7 mph78%30.04 "HgN/A
12:00 PM63 °FLow clouds.7 mph83%30.04 "HgN/A
11:00 AM61 °FLow clouds.9 mph88%30.04 "HgN/A
10:00 AM61 °FMostly cloudy.7 mph88%30.01 "HgN/A
9:00 AM59 °FFog.6 mph94%30.01 "Hg4 mi
8:00 AM59 °FFog.5 mph94%29.98 "Hg4 mi
7:00 AM59 °FFog.3 mph94%29.98 "Hg4 mi
6:00 AM59 °FPassing clouds.2 mph94%29.95 "HgN/A
5:00 AM55 °FPassing clouds.5 mph94%29.95 "HgN/A
4:00 AM55 °FClear.No wind94%29.95 "Hg10 mi
3:00 AM57 °FClear.No wind94%29.95 "Hg10 mi
2:00 AM57 °FClear.3 mph88%29.95 "Hg10 mi
1:00 AM57 °FPassing clouds.2 mph88%29.95 "HgN/A
12:00 AM59 °FClear.2 mph82%29.95 "Hg10 mi
11:00 PM
Fri, Feb 27
61 °FClear.5 mph88%29.95 "Hg10 mi
10:00 PM63 °FClear.3 mph77%29.98 "Hg10 mi
9:00 PM63 °FClear.6 mph83%29.95 "Hg10 mi
8:00 PM64 °FSunny.9 mph73%29.95 "Hg10 mi
7:00 PM66 °FSunny.9 mph68%29.95 "Hg10 mi
6:00 PM70 °FSunny.10 mph64%29.95 "Hg10 mi
Weather by CustomWeather, © 2015

See weather overviewHow to use our weather pages